15 daagse weersverwachting Feldkirch (AT)

  • Overzicht
  • Per uur
  • 15 dagen
  • Extra
  • Vergelijk
  • Kaarten
  • Dagkaart
  • Meer »
  • Info
  • Statistieken
  • Directe link
    Temp 6h Neerslag Wind  
 05:49     21:08    Daglengte: 15:19 Vandaag
02:00
20°
 
2
08:00
19°
5.2 mm
1
14:00
24°
6.1 mm
1
20:00
23°
 
1
 05:50     21:07    Daglengte: 15:17 Morgen
02:00
17°
 
2
08:00
19°
 
2
14:00
27°
 
2
20:00
24°
 
1
 05:51     21:06    Daglengte: 15:15 Dinsdag 23 Jul
02:00
18°
 
2
08:00
20°
 
1
14:00
28°
 
2
20:00
26°
 
1
Locatie info
Region: Vorarlberg
Latitude: 47.2381°N
Longitude: 9.5968°E
475 masl
Postcode: 6800
Temp/Neerslag /Baro Onweer/Dauwpunt
    Temp Baro 1h Neerslag Dauwpunt Wind UV Bewolking  
 05:49     21:08    Daglengte: 15:19 Vandaag
01:00
20°
1019.2 hPa
48%
15.6°
3
Windvlaag: 2.5 km/h
67%
02:00
20°
1019.6 hPa
82%
16.0°
2
Windvlaag: 2.5 km/h
83%
03:00
19°
1019.6 hPa
81%
15.9°
2
Windvlaag: 1.6 km/h
78%
04:00
19°
1019.8 hPa
62%
15.5°
2
Windvlaag: 2.2 km/h
82%
05:00
19°
1020.0 hPa
78%
15.6°
2
Windvlaag: 2.1 km/h
88%
06:00
19°
1020.6 hPa 1.4 mm
82%
15.2°
2
Windvlaag: 1.7 km/h
89%
07:00
19°
1021.3 hPa 1.9 mm
82%
15.6°
1
Windvlaag: 1.5 km/h
82% warningclass
08:00
19°
1021.9 hPa 1.9 mm
82%
15.4°
1
Windvlaag: 0.7 km/h
71%
09:00
19°
1022.8 hPa 1.3 mm
82%
16.5°
1
Windvlaag: 0.1 km/h
81%
10:00
20°
1023.1 hPa 2.1 mm
82%
17.3°
1
Windvlaag: 1.9 km/h
75%
11:00
21°
1023.4 hPa 1.2 mm
82%
17.6°
1
Windvlaag: 1.5 km/h
56%
12:00
22°
1023.4 hPa
79%
17.5°
1
Windvlaag: 1.2 km/h
39%
13:00
23°
1023.1 hPa 1.4 mm
82%
17.7°
1
Windvlaag: -0.9 km/h
32%
14:00
24°
1022.8 hPa
78%
17.1°
1
Windvlaag: -0.9 km/h
26%
15:00
24°
1022.6 hPa
70%
16.9°
2
Windvlaag: -1.3 km/h
26%
16:00
25°
1022.4 hPa
71%
17.0°
2
Windvlaag: -2.1 km/h
15%
17:00
25°
1022.4 hPa
29%
16.8°
2
Windvlaag: -1.9 km/h
22%
18:00
24°
1022.4 hPa
62%
16.6°
2
Windvlaag: -1.6 km/h
33%
19:00
24°
1022.9 hPa
69%
16.9°
1
Windvlaag: -1.6 km/h
20%
20:00
23°
1023.3 hPa
64%
18.4°
1
Windvlaag: -0.8 km/h
21%
21:00
21°
1023.8 hPa
17%
17.3°
1
Windvlaag: 0 km/h
22%
22:00
20°
1024.2 hPa
17%
16.2°
1
Windvlaag: 1.3 km/h
17%
23:00
19°
1024.4 hPa
15%
16.1°
2
Windvlaag: 1.5 km/h
19%
 05:50     21:07    Daglengte: 15:17 Morgen
00:00
19°
1024.3 hPa
14%
15.8°
2
Windvlaag: 1.5 km/h
30%
01:00
18°
1024.7 hPa
14%
15.2°
2
Windvlaag: 1.4 km/h
23%
02:00
17°
1024.8 hPa
14%
14.6°
2
Windvlaag: 1.5 km/h
22%
03:00
17°
1024.7 hPa
14%
14.0°
2
Windvlaag: 1.5 km/h
50%
04:00
17°
1024.6 hPa
14%
13.9°
2
Windvlaag: 1.5 km/h
45%
05:00
16°
1024.6 hPa
14%
13.5°
2
Windvlaag: 1.6 km/h
35%
06:00
16°
1024.8 hPa
14%
13.2°
2
Windvlaag: 1.6 km/h
27%
07:00
17°
1025.0 hPa
14%
13.2°
2
Windvlaag: 1.6 km/h
34%
08:00
19°
1025.2 hPa
14%
14.6°
2
Windvlaag: 1.4 km/h
42%
09:00
22°
1025.2 hPa
14%
15.8°
1
Windvlaag: 0.8 km/h
36%
10:00
24°
1025.0 hPa
14%
16.2°
1
Windvlaag: -1.2 km/h
17%
11:00
25°
1024.7 hPa
14%
15.8°
1
Windvlaag: -1.7 km/h
74%
12:00
26°
1024.6 hPa
14%
15.5°
2
Windvlaag: -2.1 km/h
80%
13:00
26°
1024.1 hPa
14%
15.5°
2
Windvlaag: -2.3 km/h
76%
14:00
27°
1023.8 hPa
14%
15.5°
2
Windvlaag: -2.5 km/h
67%
15:00
27°
1023.5 hPa
14%
16.6°
3
Windvlaag: -2.7 km/h
66%
16:00
27°
1023.5 hPa
14%
17.1°
3
Windvlaag: -2.7 km/h
70%
17:00
26°
1023.4 hPa
14%
16.9°
2
Windvlaag: -2.5 km/h
76%
18:00
26°
1023.3 hPa
14%
16.8°
2
Windvlaag: -2.1 km/h
71%
19:00
25°
1023.4 hPa
14%
16.8°
1
Windvlaag: -1.8 km/h
60%
20:00
24°
1023.5 hPa
14%
19.0°
1
Windvlaag: -1.3 km/h
63%
21:00
23°
1023.8 hPa
14%
16.6°
1
Windvlaag: -0.9 km/h
52%
22:00
21°
1024.1 hPa
14%
16.8°
1
Windvlaag: 0.5 km/h
43%
23:00
20°
1023.9 hPa
21%
16.4°
2
Windvlaag: 1.1 km/h
66%
 05:51     21:06    Daglengte: 15:15 Dinsdag 23 Jul
00:00
19°
1023.9 hPa
21%
16.0°
2
Windvlaag: 1.3 km/h
73%
01:00
19°
1023.7 hPa
21%
15.9°
2
Windvlaag: 1.5 km/h
64%
02:00
18°
1023.4 hPa
21%
15.8°
2
Windvlaag: 1.5 km/h
43%
03:00
18°
1023.0 hPa
21%
15.5°
2
Windvlaag: 1.6 km/h
41%
04:00
18°
1022.6 hPa
21%
15.0°
2
Windvlaag: 1.5 km/h
39%
05:00
17°
1022.3 hPa
21%
14.5°
2
Windvlaag: 1.4 km/h
46%
06:00
17°
1022.3 hPa
21%
14.1°
2
Windvlaag: 1.5 km/h
45%
07:00
18°
1022.2 hPa
21%
14.8°
2
Windvlaag: 1.5 km/h
36%
08:00
20°
1022.1 hPa
21%
15.8°
1
Windvlaag: 1.1 km/h
27%
09:00
23°
1021.8 hPa
21%
16.6°
1
Windvlaag: 0.2 km/h
6%
10:00
25°
1021.6 hPa
21%
16.4°
1
Windvlaag: 0.3 km/h
3%
11:00
26°
1021.4 hPa
21%
16.4°
1
Windvlaag: 0.3 km/h
13%
12:00
27°
1021.0 hPa
21%
16.6°
2
Windvlaag: 0.3 km/h
28%
13:00
28°
1020.5 hPa
21%
16.9°
2
Windvlaag: 0.4 km/h
36%
14:00
28°
1020.1 hPa
21%
17.4°
2
Windvlaag: 0.4 km/h
39%
15:00
28°
1019.6 hPa
21%
17.7°
2
Windvlaag: 0.4 km/h
46%
16:00
29°
1019.2 hPa
21%
17.6°
2
Windvlaag: 0.4 km/h
45%
17:00
29°
1018.8 hPa
21%
17.2°
2
Windvlaag: 0.4 km/h
44%
18:00
28°
1018.5 hPa
21%
16.9°
2
Windvlaag: 0.3 km/h
42%
19:00
27°
1018.3 hPa
21%
17.3°
1
Windvlaag: 0.2 km/h
20%
20:00
26°
1018.3 hPa
21%
20.8°
1
Windvlaag: 0.2 km/h
16%
21:00
24°
1018.3 hPa
21%
19.6°
1
Windvlaag: 0.7 km/h
12%
22:00
23°
1018.4 hPa
21%
18.9°
1
Windvlaag: 2.5 km/h
5%
23:00
22°
1018.4 hPa
21%
18.4°
2
Windvlaag: 3.3 km/h
3%
 05:52     21:05    Daglengte: 15:13 Woensdag 24 Jul
00:00
21°
1018.3 hPa
21%
18.0°
2
Windvlaag: 4.5 km/h
3%
Temp/Neerslag /Baro Onweer/Dauwpunt
    Temp Baro Neerslag Dauwpunt Wind Bewolking  
 05:49     21:08    Daglengte: 15:19 Vandaag
02:00
20°
1019.6 hPa   16.0°
2
83%
05:00
19°
1020.0 hPa   15.6°
2
88%
08:00
19°
1021.9 hPa 5.2 mm 15.4°
1
71%
11:00
21°
1023.4 hPa 4.6 mm 17.6°
1
56%
14:00
24°
1022.8 hPa 1.4 mm 17.1°
1
26%
17:00
25°
1022.4 hPa   16.8°
2
22%
20:00
23°
1023.3 hPa   18.4°
1
21%
23:00
19°
1024.4 hPa   16.1°
2
19%
 05:50     21:07    Daglengte: 15:17 Morgen
02:00
17°
1024.8 hPa   14.6°
2
22%
05:00
16°
1024.6 hPa   13.5°
2
35%
08:00
19°
1025.2 hPa   14.6°
2
42%
11:00
25°
1024.7 hPa   15.8°
1
74%
14:00
27°
1023.8 hPa   15.5°
2
67%
17:00
26°
1023.4 hPa   16.9°
2
76%
20:00
24°
1023.5 hPa   19.0°
1
63%
23:00
20°
1023.9 hPa   16.4°
2
66%
 05:51     21:06    Daglengte: 15:15 Dinsdag 23 Jul
02:00
18°
1023.4 hPa   15.8°
2
43%
05:00
17°
1022.3 hPa   14.5°
2
46%
08:00
20°
1022.1 hPa   15.8°
1
27%
11:00
26°
1021.4 hPa   16.4°
1
13%
14:00
28°
1020.1 hPa   17.4°
2
39%
17:00
29°
1018.8 hPa   17.2°
2
44%
20:00
26°
1018.3 hPa   20.8°
1
16%
23:00
22°
1018.4 hPa   18.4°
2
3%
 05:52     21:05    Daglengte: 15:13 Woensdag 24 Jul
02:00
20°
1018.0 hPa   17.1°
2
0%
05:00
21°
1017.9 hPa 15.6 mm 16.9°
2
5%
08:00
22°
1017.8 hPa 15.6 mm 17.4°
2
8%
11:00
27°
1017.6 hPa 15.6 mm 18.7°
2
8%
14:00
31°
1017.4 hPa 15.7 mm 19.0°
2
8%
17:00
29°
1017.0 hPa 15.7 mm 21.1°
1
47%
20:00
27°
1016.8 hPa 15.8 mm 22.6°
0
85%
23:00
24°
1017.2 hPa 16.1 mm 19.6°
1
82%
 05:53     21:04    Daglengte: 15:11 Donderdag 25 Jul
02:00
20°
1017.4 hPa 16.1 mm 16.8°
1
80%
05:00
21°
1017.4 hPa 16.1 mm 17.4°
2
51%
08:00
23°
1017.3 hPa 16.1 mm 17.9°
2
21%
11:00
28°
1016.7 hPa 16.1 mm 19.4°
2
52%
14:00
32°
1016.1 hPa 16.1 mm 20.0°
2
83%
17:00
30°
1015.7 hPa 19.4 mm 22.0°
1
84%
20:00
29°
1015.4 hPa 21.3 mm 22.9°
0
85%
23:00
25°
1015.7 hPa 21.3 mm 20.5°
1
63%
 05:54     21:03    Daglengte: 15:09 Vrijdag 26 Jul
02:00
21°
1016.0 hPa 21.8 mm 18.0°
1
42%
05:00
22°
1016.0 hPa 22.3 mm 18.5°
2
30%
08:00
24°
1016.1 hPa 22.4 mm 19.1°
2
18%
11:00
28°
1015.5 hPa 22.5 mm 19.3°
2
31%
14:00
32°
1015.0 hPa 25.8 mm 18.9°
2
44%
17:00
29°
1016.1 hPa 34.9 mm 20.1°
2
60%
20:00
26°
1017.4 hPa 40.7 mm 20.4°
2
76%
23:00
24°
1017.6 hPa 41.1 mm 19.0°
2
81%
 05:56     21:01    Daglengte: 15:05 Zaterdag 27 Jul
02:00
21°
1017.8 hPa 42.8 mm 17.7°
2
87%
05:00
22°
1018.1 hPa 43.8 mm 18.3°
2
49%
08:00
23°
1018.5 hPa 44.4 mm 19.0°
2
12%
11:00
25°
1018.7 hPa 44.6 mm 19.7°
2
37%
14:00
28°
1018.8 hPa 44.8 mm 20.2°
2
62%
17:00
27°
1019.1 hPa 45.1 mm 20.6°
1
68%
20:00
26°
1019.5 hPa 45.3 mm 21.0°
1
75%
23:00
22°
1020.1 hPa   19.9°
1
70%
 05:57     21:00    Daglengte: 15:03 Zondag 28 Jul
02:00
20°
1020.7 hPa 90.8 mm 18.6°
1
65%
08:00
22°
1021.2 hPa 90.9 mm 18.5°
1
1%
14:00
29°
1020.1 hPa 91.2 mm 20.0°
1
14%
20:00
26°
1019.6 hPa 91.3 mm 22.9°
1
37%
 05:58     20:59    Daglengte: 15:01 Maandag 29 Jul
02:00
21°
1019.4 hPa 91.3 mm 19.3°
1
19%
08:00
23°
1019.3 hPa 91.3 mm 19.2°
2
4%
14:00
31°
1017.4 hPa 91.3 mm 20.6°
1
28%
20:00
28°
1016.8 hPa 95.0 mm 22.2°
0
44%
 05:59     20:58    Daglengte: 14:59 Dinsdag 30 Jul
02:00
21°
1016.8 hPa 98.5 mm 18.7°
2
73%
08:00
23°
1016.8 hPa 98.5 mm 17.9°
2
78%
14:00
33°
Voelt als: 32.8°
1014.2 hPa 98.5 mm 15.6°
1
69%
20:00
23°
1017.7 hPa 1.2 mm 18.3°
1
26%
 06:00     20:56    Daglengte: 14:56 Woensdag 31 Jul
02:00
16°
1018.9 hPa 0.4 mm 14.3°
2
25%
08:00
18°
1018.6 hPa 0.3 mm 15.7°
1
16%
14:00
28°
1016.7 hPa 0.8 mm 16.0°
2
15%
20:00
23°
1017.0 hPa 2.0 mm 19.0°
1
29%
 06:02     20:55    Daglengte: 14:53 Donderdag 01 Aug
02:00
16°
1018.2 hPa 0.6 mm 14.4°
1
25%
08:00
19°
1017.7 hPa 0.3 mm 16.1°
1
18%
14:00
28°
1015.5 hPa 1.2 mm 15.7°
2
22%
20:00
22°
1016.0 hPa 2.6 mm 18.3°
1
37%
 06:03     20:54    Daglengte: 14:51 Vrijdag 02 Aug
02:00
16°
1017.6 hPa 1.9 mm 14.1°
1
37%
08:00
18°
1017.5 hPa 0.9 mm 15.1°
1
33%
14:00
27°
1015.4 hPa 0.5 mm 14.4°
2
26%
20:00
21°
1015.5 hPa 1.4 mm 17.3°
1
24%
 06:04     20:52    Daglengte: 14:48 Zaterdag 03 Aug
02:00
15°
1016.9 hPa 0.9 mm 13.3°
1
28%
08:00
17°
1016.3 hPa 0.6 mm 14.8°
1
29%
14:00
25°
1014.3 hPa 0.9 mm 14.7°
2
31%
20:00
20°
1014.6 hPa 3.0 mm 16.9°
1
42%
 06:05     20:51    Daglengte: 14:46 Zondag 04 Aug
02:00
14°
1015.7 hPa 1.6 mm 13.3°
1
35%
08:00
16°
1015.5 hPa 0.7 mm 14.0°
1
36%
14:00
24°
1013.8 hPa 0.4 mm 13.7°
2
31%
20:00
19°
1014.2 hPa 1.8 mm 15.5°
1
42%
  CAPE Lifted Index Hail Supercell Tornado SRH 3km CL BTM PRES CL TOP PRES Swiss DWD icon SMHI TS
 05:49     21:08    Daglengte: 15:19 Vandaag
01:00 50 J/kg -2.9 K 0 % 0 % 0 % 0 m²/s² 0 0 -1.94 3
02:00 184 J/kg -2.8 K 0 % 0 % 0 % 0 m²/s² 0 0 -2.62 3
03:00 138 J/kg -3.1 K 0 % 0 % 0 % 0 m²/s² 0 0 -2.32 3
04:00 244 J/kg -2.5 K 0 % 0 % 0 % 0 m²/s² 0 0 -1.96 3
05:00 263 J/kg -2.0 K 0 % 0 % 0 % 0 m²/s² 0 0 -1.97 61
06:00 221 J/kg -2.0 K 0 % 0 % 0 % 0 m²/s² 0 0 -1.46 80
07:00 229 J/kg -1.8 K 0 % 0 % 0 % 0 m²/s² 0 0 -0.57 95
08:00 265 J/kg -1.8 K 0 % 0 % 0 % 0 m²/s² 0 0 -0.51 61
09:00 342 J/kg -1.7 K 0 % 0 % 0 % 0 m²/s² 0 0 -0.8 61
10:00 464 J/kg -2.0 K 0 % 0 % 0 % 0 m²/s² 0 0 -0.38 3
11:00 860 J/kg -2.6 K 0 % 0 % 0 % 0 m²/s² 0 0 -0.35 2
12:00 1159 J/kg -3.3 K 0 % 0 % 0 % 0 m²/s² 0 0 -0.75 3
13:00 1287 J/kg -3.8 K 0 % 0 % 0 % 0 m²/s² 0 0 -1.31 3
14:00 1191 J/kg -3.7 K 0 % 0 % 0 % 0 m²/s² 0 0 -0.67 3
15:00 1209 J/kg -3.7 K 0 % 0 % 0 % 0 m²/s² 0 0 -1.63 2
16:00 1113 J/kg -3.4 K 0 % 0 % 0 % 0 m²/s² 0 0 0.08 2
17:00 979 J/kg -3.1 K 0 % 0 % 0 % 0 m²/s² 0 0 1.1 2
18:00 819 J/kg -2.7 K 0 % 0 % 0 % 0 m²/s² 0 0 1.2 3
19:00 577 J/kg -1.8 K 0 % 0 % 0 % 0 m²/s² 0 0 1.35 3
20:00 420 J/kg -0.9 K 0 % 0 % 0 % 0 m²/s² 0 0 2.4 1
21:00 112 J/kg -0.1 K 0 % 0 % 0 % 0 m²/s² 0 0 4.1 0
22:00 10 J/kg 0.5 K 0 % 0 % 0 % 0 m²/s² 0 0 5.15 1
23:00 0 J/kg 0.5 K 0 % 0 % 0 % 0 m²/s² 0 0 5.66 2
 05:50     21:07    Daglengte: 15:17 Morgen
00:00 0 J/kg 0.7 K 0 % 0 % 0 % 0 m²/s² 0 0 6.46 2
01:00 0 J/kg 0.8 K 0 % 0 % 0 % 0 m²/s² 0 0 6.71 1
02:00 0 J/kg 1.0 K 0 % 0 % 0 % 0 m²/s² 0 0 7.09 3
03:00 0 J/kg 1.0 K 0 % 0 % 0 % 0 m²/s² 0 0 6.91 1
04:00 0 J/kg 1.3 K 0 % 0 % 0 % 0 m²/s² 0 0 7.39 1
05:00 0 J/kg 1.4 K 0 % 0 % 0 % 0 m²/s² 0 0 8.06 3
06:00 0 J/kg 1.5 K 0 % 0 % 0 % 0 m²/s² 0 0 8.37 3
07:00 0 J/kg 1.4 K 0 % 0 % 0 % 0 m²/s² 0 0 7.85 3
08:00 0 J/kg 1.4 K 0 % 0 % 0 % 0 m²/s² 0 0 7.85 3
09:00 1 J/kg 1.3 K 0 % 0 % 0 % 0 m²/s² 0 0 7.75 3
10:00 2 J/kg 0.9 K 0 % 0 % 0 % 0 m²/s² 0 0 7.35 2
11:00 25 J/kg 0.5 K 0 % 0 % 0 % 0 m²/s² 0 0 7.16 3
12:00 33 J/kg 0.2 K 0 % 0 % 0 % 0 m²/s² 0 0 7.07 3
13:00 31 J/kg 0.2 K 0 % 0 % 0 % 0 m²/s² 0 0 7.28 3
14:00 20 J/kg 0.3 K 0 % 0 % 0 % 0 m²/s² 0 0 7.41 3
15:00 17 J/kg 0.1 K 0 % 0 % 0 % 0 m²/s² 0 0 7.21 3
16:00 4 J/kg 0.1 K 0 % 0 % 0 % 0 m²/s² 0 0 7.21 3
17:00 0 J/kg 0.3 K 0 % 0 % 0 % 0 m²/s² 0 0 7.02 3
18:00 0 J/kg 0.8 K 0 % 0 % 0 % 0 m²/s² 0 0 7.13 3
19:00 0 J/kg 0.9 K 0 % 0 % 0 % 0 m²/s² 0 0 7.08 3
20:00 0 J/kg 1.4 K 0 % 0 % 0 % 0 m²/s² 0 0 7.76 1
21:00 0 J/kg 1.9 K 0 % 0 % 0 % 0 m²/s² 0 0 8.08 2
22:00 0 J/kg 2.3 K 0 % 0 % 0 % 0 m²/s² 0 0 8.87 3
23:00 0 J/kg 2.3 K 0 % 0 % 0 % 0 m²/s² 0 0 8.87 3
 05:51     21:06    Daglengte: 15:15 Dinsdag 23 Jul
00:00 0 J/kg 2.9 K 0 % 0 % 0 % 0 m²/s² 0 0 9.47 3
01:00 0 J/kg 3.3 K 0 % 0 % 0 % 0 m²/s² 0 0 9.87 3
02:00 0 J/kg 3.3 K 0 % 0 % 0 % 0 m²/s² 0 0 9.87 3
03:00 0 J/kg 3.1 K 0 % 0 % 0 % 0 m²/s² 0 0 9.85 3
04:00 0 J/kg 3.2 K 0 % 0 % 0 % 0 m²/s² 0 0 9.95 1
05:00 0 J/kg 3.1 K 0 % 0 % 0 % 0 m²/s² 0 0 9.85 1
06:00 0 J/kg 3.1 K 0 % 0 % 0 % 0 m²/s² 0 0 9.85 2
07:00 0 J/kg 3.0 K 0 % 0 % 0 % 0 m²/s² 0 0 9.57 1
08:00 0 J/kg 2.5 K 0 % 0 % 0 % 0 m²/s² 0 0 9.07 1
09:00 0 J/kg 1.5 K 0 % 0 % 0 % 0 m²/s² 0 0 8.07 1
10:00 1 J/kg 0.6 K 0 % 0 % 0 % 0 m²/s² 0 0 7.17 2
11:00 34 J/kg 0.0 K 0 % 0 % 0 % 0 m²/s² 0 0 6.57 1
12:00 59 J/kg 0.0 K 0 % 0 % 0 % 0 m²/s² 0 0 6.39 0
13:00 37 J/kg 0.3 K 0 % 0 % 0 % 0 m²/s² 0 0 6.69 1
14:00 24 J/kg 0.5 K 0 % 0 % 0 % 0 m²/s² 0 0 6.89 2
15:00 0 J/kg 0.9 K 0 % 0 % 0 % 0 m²/s² 0 0 7.29 3
16:00 1 J/kg 1.3 K 0 % 0 % 0 % 0 m²/s² 0 0 7.72 3
17:00 0 J/kg 1.3 K 0 % 0 % 0 % 0 m²/s² 0 0 7.54 2
18:00 7 J/kg 0.6 K 0 % 0 % 0 % 0 m²/s² 0 0 6.06 1
19:00 0 J/kg 0.2 K 0 % 0 % 0 % 0 m²/s² 0 0 5.39 1
20:00 28 J/kg 0.2 K 0 % 0 % 0 % 0 m²/s² 0 0 5.39 2
21:00 0 J/kg -0.4 K 0 % 0 % 0 % 0 m²/s² 0 0 5.06 0
22:00 1 J/kg -0.7 K 0 % 0 % 0 % 0 m²/s² 0 0 4.91 0
23:00 0 J/kg -1.0 K 0 % 0 % 0 % 0 m²/s² 0 0 4.91 1
 05:52     21:05    Daglengte: 15:13 Woensdag 24 Jul
00:00 117 J/kg -1.3 K 0 % 0 % 0 % 0 m²/s² 0 0 4.76 1
Temp Baro Wind Neerslag
  EWN Forecast EWN WRFDA DWD ICON FMI HIRLAM MET Norway GFS
 05:49     21:08    Daglengte: 15:19 Vandaag
02:00 19.5° 1019.6 hPa 2.4 m/s 0.0 mm 20.1° 1019.8 hPa 3.0 m/s 3.0 mm 19.6° 1018.9 hPa 1.8 m/s -1.6 mm 21.2° 1022.0 hPa 3.4 m/s 0.0 mm 19.2° 1019.2 hPa 1.3 m/s 0.0 mm 17.8° 1021.2 hPa 1.9 m/s
05:00 19.2° 1020.0 hPa 2.5 m/s 0.0 mm 19.6° 1019.4 hPa 2.6 m/s 12.3 mm 18.1° 1020.4 hPa 2.6 m/s 0.2 mm 20.6° 1022.0 hPa 3.0 m/s 0.0 mm 19.3° 1019.8 hPa 0.9 m/s 0.0 mm 18.0° 1021.0 hPa 0.6 m/s
08:00 19.1° 1021.9 hPa 0.8 m/s 5.2 mm 22.0° 1020.0 hPa 1.8 m/s 13.8 mm 17.2° 1022.0 hPa 0.6 m/s 4.1 mm 20.1° 1023.0 hPa 2.0 m/s 0.0 mm 19.1° 1022.0 hPa 0.1 m/s 2.1 mm 20.2° 1021.6 hPa 1.1 m/s
11:00 20.9° 1023.4 hPa 1.0 m/s 4.6 mm 22.6° 1021.8 hPa 2.9 m/s 14.6 mm 19.8° 1022.8 hPa 0.5 m/s 1.5 mm 23.2° 1023.6 hPa 1.7 m/s 0.0 mm 21.1° 1023.5 hPa 0.4 m/s 2.2 mm 23.1° 1022.4 hPa 1.3 m/s
14:00 23.7° 1022.8 hPa 1.5 m/s 1.4 mm 24.3° 1021.1 hPa 2.2 m/s 18.8 mm 22.5° 1022.5 hPa 1.7 m/s 0.1 mm 25.6° 1023.0 hPa 3.4 m/s 0.0 mm 24.2° 1022.8 hPa 0.4 m/s 0.4 mm 24.4° 1021.9 hPa 1.4 m/s
17:00 24.5° 1022.4 hPa 1.7 m/s 0.0 mm 25.5° 1021.2 hPa 2.1 m/s 21.2 mm 23.6° 1021.6 hPa 1.4 m/s 0.1 mm 26.4° 1022.4 hPa 2.2 m/s 0.0 mm 24.6° 1022.4 hPa 0.9 m/s 1.4 mm 24.1° 1022.6 hPa 1.7 m/s
20:00 22.5° 1023.3 hPa 1.0 m/s 0.0 mm 24.7° 1021.3 hPa 1.1 m/s 21.4 mm 21.8° 1022.4 hPa 1.1 m/s 0.1 mm 24.0° 1023.6 hPa 1.8 m/s 0.0 mm 22.5° 1023.4 hPa 0.6 m/s 0.3 mm 22.1° 1022.9 hPa 0.4 m/s
23:00 18.9° 1024.4 hPa 1.6 m/s 0.0 mm 18.7° 1022.8 hPa 2.5 m/s 21.4 mm 19.1° 1023.9 hPa 1.7 m/s 0.0 mm 19.4° 1026.9 hPa 1.4 m/s 0.0 mm 19.0° 1024.2 hPa 1.3 m/s 0.0 mm 17.8° 1025.3 hPa 1.5 m/s
 05:50     21:07    Daglengte: 15:17 Morgen
02:00 17.5° 1024.8 hPa 2.0 m/s 0.0 mm 17.7° 1022.4 hPa 2.6 m/s 21.4 mm 18.0° 1023.8 hPa 1.9 m/s 0.0 mm 18.8° 1026.8 hPa 2.3 m/s 0.0 mm 17.1° 1024.7 hPa 1.2 m/s 0.0 mm 17.0° 1025.4 hPa 1.8 m/s
05:00 16.5° 1024.6 hPa 2.2 m/s 0.0 mm 17.8° 1021.9 hPa 3.3 m/s 21.4 mm 17.1° 1024.2 hPa 1.6 m/s 0.0 mm 18.4° 1026.8 hPa 2.8 m/s 0.0 mm 14.4° 1024.6 hPa 1.6 m/s 0.0 mm 16.6° 1025.2 hPa 1.8 m/s
08:00 19.5° 1025.2 hPa 1.8 m/s 0.0 mm 22.6° 1022.7 hPa 1.6 m/s 21.4 mm 18.8° 1024.8 hPa 1.1 m/s 0.0 mm 20.9° 1026.3 hPa 2.3 m/s 0.0 mm 19.3° 1025.3 hPa 1.8 m/s 0.0 mm 19.7° 1025.2 hPa 1.4 m/s
11:00 25.0° 1024.7 hPa 0.9 m/s 0.0 mm 25.0° 1022.7 hPa 2.3 m/s 21.4 mm 23.5° 1024.7 hPa 0.5 m/s 0.0 mm 26.2° 1024.2 hPa 0.8 m/s 0.0 mm 25.4° 1025.0 hPa 0.6 m/s 0.0 mm 27.6° 1024.8 hPa 1.1 m/s
14:00 26.7° 1023.8 hPa 2.3 m/s 0.0 mm 25.6° 1022.2 hPa 2.6 m/s 21.4 mm 25.6° 1023.4 hPa 2.2 m/s 0.0 mm 28.4° 1023.5 hPa 2.7 m/s 0.0 mm 27.6° 1024.0 hPa 1.1 m/s 0.0 mm 29.0° 1023.5 hPa 2.2 m/s
17:00 26.1° 1023.4 hPa 2.4 m/s 0.0 mm 26.8° 1021.5 hPa 2.9 m/s 21.4 mm 26.0° 1022.4 hPa 2.4 m/s 0.0 mm 28.0° 1023.2 hPa 3.1 m/s 0.0 mm 25.7° 1023.8 hPa 1.5 m/s 0.0 mm 28.1° 1022.9 hPa 2.5 m/s
20:00 24.1° 1023.5 hPa 0.8 m/s 0.0 mm 24.9° 1020.9 hPa 0.9 m/s 21.4 mm 23.1° 1022.8 hPa 0.5 m/s 0.0 mm 25.8° 1023.8 hPa 1.3 m/s 0.0 mm 24.1° 1023.7 hPa 0.5 m/s 0.0 mm 23.4° 1023.2 hPa 1.1 m/s
23:00 19.6° 1023.9 hPa 1.5 m/s 0.0 mm 19.2° 1022.1 hPa 2.1 m/s 21.4 mm 20.2° 1023.1 hPa 1.5 m/s 0.0 mm 19.6° 1024.1 hPa 1.1 m/s 0.0 mm 19.5° 1025.0 hPa 1.4 m/s
 05:51     21:06    Daglengte: 15:15 Dinsdag 23 Jul
02:00 18.3° 1023.4 hPa 1.6 m/s 0.0 mm 19.3° 1020.9 hPa 3.6 m/s 21.4 mm 19.0° 1022.6 hPa 1.4 m/s 0.0 mm 17.4° 1023.7 hPa 0.9 m/s 0.0 mm 18.9° 1023.8 hPa 1.8 m/s
05:00 17.5° 1022.3 hPa 1.7 m/s 0.0 mm 18.9° 1019.9 hPa 3.2 m/s 21.4 mm 18.1° 1022.3 hPa 1.5 m/s 0.0 mm 15.5° 1022.7 hPa 1.4 m/s 0.0 mm 18.4° 1023.3 hPa 1.9 m/s
08:00 20.2° 1022.1 hPa 1.3 m/s 0.0 mm 24.1° 1019.4 hPa 0.6 m/s 21.4 mm 20.3° 1022.1 hPa 0.5 m/s 0.0 mm 19.7° 1022.5 hPa 1.5 m/s 0.0 mm 22.7° 1022.2 hPa 1.1 m/s
11:00 26.0° 1021.4 hPa 1.1 m/s 0.0 mm 26.5° 1019.9 hPa 2.0 m/s 21.4 mm 24.2° 1021.3 hPa 1.1 m/s 0.0 mm 26.3° 1021.7 hPa 1.0 m/s 0.0 mm 29.1° 1021.4 hPa 1.4 m/s
14:00 28.2° 1020.1 hPa 2.2 m/s 0.0 mm 28.7° 1019.2 hPa 2.9 m/s 21.4 mm 27.6° 1019.6 hPa 2.3 m/s 0.0 mm 28.2° 1020.7 hPa 1.9 m/s 0.0 mm 30.7° 1019.8 hPa 2.6 m/s
17:00 28.5° 1018.8 hPa 2.0 m/s 0.0 mm 29.2° 1017.8 hPa 2.5 m/s 21.4 mm 28.2° 1018.2 hPa 2.2 m/s 0.0 mm 28.5° 1019.5 hPa 1.7 m/s 0.0 mm 30.3° 1019.2 hPa 2.4 m/s
20:00 26.0° 1018.3 hPa 0.6 m/s 0.0 mm 27.1° 1017.8 hPa 0.6 m/s 21.4 mm 25.6° 1018.0 hPa 0.4 m/s 0.0 mm 25.9° 1018.7 hPa 0.7 m/s 0.0 mm 25.4° 1019.4 hPa 0.9 m/s
23:00 22.0° 1018.4 hPa 1.7 m/s 0.0 mm 21.9° 1018.0 hPa 3.3 m/s 21.4 mm 22.2° 1018.4 hPa 2.1 m/s 0.0 mm 22.0° 1018.4 hPa 1.0 m/s 21.7° 1020.7 hPa 1.7 m/s
 05:52     21:05    Daglengte: 15:13 Woensdag 24 Jul
02:00 19.7° 1018.0 hPa 1.7 m/s 0.0 mm 22.7° 1017.5 hPa 3.7 m/s 21.4 mm 21.0° 1018.1 hPa 1.7 m/s 0.0 mm 18.1° 1018.1 hPa 1.3 m/s 21.3° 1020.4 hPa 2.1 m/s
05:00 20.6° 1017.9 hPa 1.7 m/s 15.6 mm 20.6° 1017.8 hPa 1.6 m/s 20.5° 1019.8 hPa 2.2 m/s 15.6 mm
08:00 22.0° 1017.8 hPa 1.8 m/s 15.6 mm 21.8° 1017.6 hPa 1.8 m/s 23.9° 1019.8 hPa 1.8 m/s 15.6 mm
11:00 26.6° 1017.6 hPa 1.7 m/s 15.6 mm 26.2° 1017.5 hPa 1.8 m/s 31.2° 1019.2 hPa 1.0 m/s 15.6 mm
14:00 30.7° 1017.4 hPa 1.8 m/s 15.7 mm 30.6° 1017.3 hPa 1.7 m/s 32.2° 1018.0 hPa 2.7 m/s 15.7 mm
17:00 29.2° 1017.0 hPa 1.1 m/s 15.7 mm 29.1° 1017.0 hPa 1.0 m/s 30.7° 1017.4 hPa 2.4 m/s 15.7 mm
20:00 27.5° 1016.8 hPa 0.3 m/s 15.8 mm 27.6° 1016.7 hPa 0.3 m/s 25.9° 1017.8 hPa 0.4 m/s 15.8 mm
23:00 23.6° 1017.2 hPa 0.9 m/s 16.1 mm 23.6° 1017.0 hPa 0.8 m/s 23.2° 1019.1 hPa 1.7 m/s 16.1 mm
 05:53     21:04    Daglengte: 15:11 Donderdag 25 Jul
02:00 19.8° 1017.4 hPa 1.4 m/s 16.1 mm 19.6° 1017.3 hPa 1.3 m/s 22.0° 1018.5 hPa 2.1 m/s 16.1 mm
05:00 21.3° 1017.4 hPa 1.7 m/s 16.1 mm 21.3° 1017.3 hPa 1.6 m/s 21.0° 1018.0 hPa 2.3 m/s 16.1 mm
08:00 23.1° 1017.3 hPa 2.0 m/s 16.1 mm 23.0° 1017.3 hPa 2.0 m/s 24.3° 1017.9 hPa 1.8 m/s 16.1 mm
11:00 27.8° 1016.7 hPa 1.9 m/s 16.1 mm 27.4° 1016.7 hPa 2.0 m/s 31.9° 1017.0 hPa 0.6 m/s 16.1 mm
14:00 31.9° 1016.1 hPa 2.1 m/s 16.1 mm 31.8° 1016.1 hPa 2.0 m/s 32.7° 1015.8 hPa 2.8 m/s 16.1 mm
17:00 30.2° 1015.7 hPa 1.3 m/s 19.4 mm 30.2° 1015.8 hPa 1.2 m/s 29.4° 1015.2 hPa 2.0 m/s 19.4 mm
20:00 28.5° 1015.4 hPa 0.5 m/s 21.3 mm 28.7° 1015.4 hPa 0.5 m/s 26.3° 1015.8 hPa 0.1 m/s 21.3 mm
23:00 24.6° 1015.7 hPa 1.0 m/s 21.3 mm 24.8° 1015.6 hPa 0.8 m/s 22.5° 1016.6 hPa 2.1 m/s 21.3 mm
 05:54     21:03    Daglengte: 15:09 Vrijdag 26 Jul
02:00 20.8° 1016.0 hPa 1.3 m/s 21.8 mm 20.8° 1015.9 hPa 1.2 m/s 20.9° 1016.7 hPa 2.7 m/s 21.8 mm
05:00 22.2° 1016.0 hPa 1.8 m/s 22.3 mm 22.5° 1016.0 hPa 1.6 m/s 20.0° 1016.0 hPa 2.9 m/s 22.3 mm
08:00 24.0° 1016.1 hPa 2.1 m/s 22.4 mm 24.1° 1016.1 hPa 2.1 m/s 22.6° 1015.5 hPa 2.5 m/s 22.4 mm
11:00 28.2° 1015.5 hPa 1.8 m/s 22.5 mm 28.0° 1015.5 hPa 1.9 m/s 31.1° 1014.8 hPa 1.3 m/s 22.5 mm
14:00 31.5° 1015.0 hPa 1.6 m/s 25.8 mm 31.8° 1015.0 hPa 1.6 m/s 28.6° 1014.6 hPa 1.9 m/s 25.8 mm
17:00 29.1° 1016.1 hPa 1.9 m/s 34.9 mm 29.3° 1016.2 hPa 1.9 m/s 26.5° 1015.0 hPa 1.5 m/s 34.9 mm
20:00 26.4° 1017.4 hPa 2.2 m/s 40.7 mm 26.8° 1017.4 hPa 2.3 m/s 21.8° 1017.5 hPa 1.2 m/s 40.7 mm
23:00 23.5° 1017.6 hPa 1.8 m/s 41.1 mm 23.9° 1017.5 hPa 1.9 m/s 19.3° 1019.0 hPa 0.7 m/s 41.1 mm
 05:56     21:01    Daglengte: 15:05 Zaterdag 27 Jul
02:00 20.9° 1017.8 hPa 1.6 m/s 42.8 mm 21.0° 1017.6 hPa 1.6 m/s 19.8° 1019.5 hPa 1.3 m/s 42.8 mm
05:00 21.9° 1018.1 hPa 1.6 m/s 43.8 mm 22.2° 1018.0 hPa 1.7 m/s 18.7° 1019.3 hPa 1.0 m/s 43.8 mm
08:00 23.0° 1018.5 hPa 1.7 m/s 44.4 mm 23.4° 1018.4 hPa 1.8 m/s 18.7° 1019.7 hPa 0.9 m/s 44.4 mm
11:00 25.3° 1018.7 hPa 1.8 m/s 44.6 mm 25.8° 1018.6 hPa 1.8 m/s 19.4° 1019.5 hPa 1.3 m/s 44.6 mm
14:00 27.6° 1018.8 hPa 1.8 m/s 44.8 mm 28.2° 1018.8 hPa 1.8 m/s 20.6° 1018.6 hPa 1.8 m/s 44.8 mm
17:00 26.7° 1019.1 hPa 1.3 m/s 45.1 mm 27.0° 1019.2 hPa 1.2 m/s 22.7° 1018.2 hPa 2.0 m/s 45.1 mm
20:00 25.5° 1019.5 hPa 0.6 m/s 45.3 mm 25.9° 1019.6 hPa 0.6 m/s 21.3° 1018.3 hPa 1.1 m/s 45.3 mm
23:00 22.5° 1020.1 hPa 0.8 m/s 45.4 mm 22.8° 1020.2 hPa 0.9 m/s 19.7° 1019.6 hPa 0.2 m/s 45.4 mm
 05:57     21:00    Daglengte: 15:03 Zondag 28 Jul
02:00 19.6° 1020.7 hPa 1.1 m/s 45.4 mm 19.6° 1020.8 hPa 1.1 m/s 19.7° 1019.3 hPa 0.9 m/s 45.4 mm
08:00 21.9° 1021.2 hPa 1.5 m/s 45.5 mm 22.0° 1021.4 hPa 1.6 m/s 20.5° 1019.3 hPa 0.2 m/s 45.5 mm
14:00 28.6° 1020.1 hPa 1.2 m/s 45.6 mm 28.7° 1020.3 hPa 1.1 m/s 27.1° 1017.9 hPa 2.3 m/s 45.6 mm
20:00 26.4° 1019.6 hPa 0.6 m/s 45.6 mm 26.6° 1019.7 hPa 0.6 m/s 23.7° 1018.4 hPa 1.2 m/s 45.6 mm
 05:58     20:59    Daglengte: 15:01 Maandag 29 Jul
02:00 20.9° 1019.4 hPa 1.3 m/s 45.6 mm 21.1° 1019.4 hPa 1.3 m/s 18.9° 1019.8 hPa 1.7 m/s 45.6 mm
08:00 22.6° 1019.3 hPa 1.5 m/s 45.6 mm 22.6° 1019.2 hPa 1.6 m/s 22.2° 1020.1 hPa 0.9 m/s 45.6 mm
14:00 30.8° 1017.4 hPa 1.3 m/s 45.6 mm 30.9° 1017.3 hPa 1.2 m/s 30.1° 1018.6 hPa 2.5 m/s 45.6 mm
20:00 28.2° 1016.8 hPa 0.4 m/s 48.4 mm 28.4° 1016.5 hPa 0.4 m/s 25.5° 1019.5 hPa 1.0 m/s 48.4 mm
 05:59     20:58    Daglengte: 14:59 Dinsdag 30 Jul
02:00 21.4° 1016.8 hPa 1.6 m/s 49.2 mm 21.5° 1016.4 hPa 1.5 m/s 20.6° 1021.3 hPa 2.2 m/s 49.2 mm
08:00 23.5° 1016.8 hPa 2.3 m/s 49.2 mm 23.5° 1016.5 hPa 2.3 m/s 23.1° 1020.4 hPa 2.0 m/s 49.2 mm
14:00 33.0° 1014.2 hPa 1.0 m/s 49.3 mm 33.0° 1013.9 hPa 0.9 m/s 32.7° 1018.0 hPa 2.4 m/s 49.3 mm
20:00 22.9° 1017.7 hPa 1.2 m/s 1.2 mm
 06:00     20:56    Daglengte: 14:56 Woensdag 31 Jul
02:00 16.2° 1018.9 hPa 1.6 m/s 0.4 mm
08:00 18.4° 1018.6 hPa 1.2 m/s 0.3 mm
14:00 27.6° 1016.7 hPa 2.0 m/s 0.8 mm
20:00 22.8° 1017.0 hPa 1.4 m/s 2.0 mm
 06:02     20:55    Daglengte: 14:53 Donderdag 01 Aug
02:00 15.9° 1018.2 hPa 1.3 m/s 0.6 mm
08:00 18.5° 1017.7 hPa 1.1 m/s 0.3 mm
14:00 27.7° 1015.5 hPa 1.8 m/s 1.2 mm
20:00 22.2° 1016.0 hPa 1.4 m/s 2.6 mm
 06:03     20:54    Daglengte: 14:51 Vrijdag 02 Aug
02:00 16.1° 1017.6 hPa 1.1 m/s 1.9 mm
08:00 17.7° 1017.5 hPa 0.9 m/s 0.9 mm
14:00 26.6° 1015.4 hPa 2.0 m/s 0.5 mm
20:00 21.4° 1015.5 hPa 1.4 m/s 1.4 mm
 06:04     20:52    Daglengte: 14:48 Zaterdag 03 Aug
02:00 15.2° 1016.9 hPa 1.2 m/s 0.9 mm
08:00 17.3° 1016.3 hPa 0.9 m/s 0.6 mm
14:00 25.5° 1014.3 hPa 2.0 m/s 0.9 mm
20:00 20.0° 1014.6 hPa 1.4 m/s 3.0 mm
 06:05     20:51    Daglengte: 14:46 Zondag 04 Aug
02:00 14.3° 1015.7 hPa 0.7 m/s 1.6 mm
08:00 15.9° 1015.5 hPa 0.5 m/s 0.7 mm
14:00 23.8° 1013.8 hPa 1.9 m/s 0.4 mm
20:00 19.2° 1014.2 hPa 1.2 m/s 1.8 mm
FMI Hirlam - 7.5 km EWN WRFDA - 12 km DWD ICON - 7 km GFS - 25 km Basiskaart






























































Updatetijd (Europe/Amsterdam) Resolutie Lengte Stap
FMI Hirlam 19:00, 01:00, 07:00, 13:00 7.5 km 49h 1h
EWN WRFDA 22:00, 04:00, 10:00, 16:00 12 km 73h 1h
DWD ICON 23:45, 05:45, 11:45, 17:45 7 km 75h 1h
GFS 20:30, 02:30, 08:30, 14:30 25 km 237h 3h
30+ mm
25-30 mm
20-25 mm
15-20 mm
10-15 mm
6-10 mm
4-6 mm
2-4 mm
1-2 mm
0.5-1 mm
0.2-0.5 mm
0.1-0.2 mm
30+ mm
25-30 mm
20-25 mm
15-20 mm
10-15 mm
6-10 mm
4-6 mm
2-4 mm
1-2 mm
0.5-1 mm
0.2-0.5 mm
0.1-0.2 mm
Sneeuwval
Natte sneeuw
Hagel
Vorst
30+ mm
25-30 mm
20-25 mm
15-20 mm
10-15 mm
6-10 mm
4-6 mm
2-4 mm
1-2 mm
0.5-1 mm
0.2-0.5 mm
0.1-0.2 mm
Sneeuwval
Natte sneeuw
Hagel
Vorst
Onweer
50 mm
40 mm
30 mm
26 mm
22 mm
18 mm
14 mm
10 mm
9 mm
8 mm
7 mm
6 mm
5 mm
4.5 mm
4 mm
3.5 mm
3 mm
2.5 mm
2 mm
1.5 mm
1 mm
0.8 mm
0.6 mm
0.4 mm
0.2 mm
0.05 mm
35°
30°
25°
20°
15°
10°
-5°
-10°
-15°
-20°
-25°
-30°
-35°
120> km/h
105 km/h
90 km/h
75 km/h
60 km/h
50 km/h
40 km/h
30 km/h
20 km/h
10 km/h
0 km/h
2600 J/kg
2400 J/kg
2200 J/kg
2000 J/kg
1800 J/kg
1600 J/kg
1400 J/kg
1200 J/kg
1000 J/kg
800 J/kg
600 J/kg
400 J/kg
200 J/kg
70 dBZ
65 dBZ
60 dBZ
55 dBZ
50 dBZ
45 dBZ
40 dBZ
35 dBZ
30 dBZ
25 dBZ
20 dBZ
15 dBZ
10 dBZ
5 dBZ
-1 K
-2 K
-3 K
-4 K
-5 K
-6 K
-7 K
-8 K
-9 K
950 m²/s²
900 m²/s²
850 m²/s²
800 m²/s²
750 m²/s²
700 m²/s²
650 m²/s²
600 m²/s²
550 m²/s²
500 m²/s²
450 m²/s²
400 m²/s²
350 m²/s²
300 m²/s²
250 m²/s²
200 m²/s²
150 m²/s²
100 m²/s²
46 m/s
44 m/s
42 m/s
40 m/s
38 m/s
36 m/s
34 m/s
32 m/s
30 m/s
28 m/s
26 m/s
24 m/s
22 m/s
20 m/s
16 m/s
12 m/s
8 m/s
4 m/s
30 m/s
28 m/s
26 m/s
24 m/s
22 m/s
20 m/s
18 m/s
16 m/s
14 m/s
12 m/s
10 m/s
8 m/s
6 m/s
4 m/s
2 m/s
3.0
2.8
2.6
2.4
2.2
2.0
1.8
1.6
1.4
1.2
1.0
0.8
0.6
0.4
0.2
15
14
13
12
11
10
9
8
7
6
5
4
3
2
1
90%
80%
70%
60%
50%
40%
30%
20%
10%
42
40
38
36
34
32
30
28
26
24
22
20
18
16
14
12
90+ cm
80-90 cm
70-80 cm
60-70 cm
50-60 cm
40-50 cm
30-40 cm
20-30 cm
10-20 cm
1-10 cm
Sneeuwval
Natte sneeuw
Regen
>120 mm
115 mm
110 mm
105 mm
100 mm
95 mm
90 mm
85 mm
80 mm
75 mm
70 mm
65 mm
60 mm
55 mm
50 mm
45 mm
45 mm
40 mm
35 mm
30 mm
25 mm
20 mm
15 mm
10 mm
5 mm
0.1 mm
960 hPa
880 hPa
800 hPa
720 hPa
640 hPa
560 hPa
584 gpdm
568 gpdm
552 gpdm
536 gpdm
520 gpdm
504 gpdm
488 gpdm
Extreem zwaar Noodweer Kans op onweer
15% 15% 5% 50% 15%